Date,TemperatureHighF,TemperatureAvgF,TemperatureLowF,DewpointHighF,DewpointAvgF,DewpointLowF,HumidityHigh,HumidityAvg,HumidityLow,PressureMaxIn,PressureMinIn,WindSpeedMaxMPH,WindSpeedAvgMPH,GustSpeedMaxMPH,PrecipitationSumIn
2013-1-1,50.7,45.4,40.1,41.9,36.7,27.3,92,72,54,29.34,29.20,9,2,9,0.01
2013-1-2,51.3,39.5,35.2,37.0,33.5,28.1,92,79,47,29.51,29.28,10,2,10,0.00
2013-1-3,48.0,35.0,28.4,28.1,23.2,19.5,74,62,43,29.55,29.45,8,2,8,0.00
2013-1-4,50.5,36.0,24.3,29.0,23.2,19.3,86,61,41,29.55,29.45,24,4,24,0.00
2013-1-5,54.5,40.6,28.0,33.7,25.4,20.3,79,56,34,29.67,29.49,24,4,24,0.00
2013-1-6,56.5,42.5,31.6,39.4,33.0,29.1,91,71,45,29.50,29.35,14,3,14,0.01
2013-1-7,56.7,41.3,30.7,35.2,30.3,26.1,86,66,42,29.74,29.46,14,3,14,0.00
2013-1-8,57.0,38.8,27.0,39.9,32.4,24.1,95,79,52,29.75,29.64,16,2,16,0.00
2013-1-9,62.1,48.1,30.9,50.9,42.4,30.6,99,82,53,29.70,29.60,13,2,13,0.00
2013-1-10,67.6,49.7,39.6,39.7,34.6,29.4,70,57,35,29.87,29.69,10,2,10,0.00
2013-1-11,45.3,42.8,41.4,42.5,37.9,32.3,99,84,61,29.76,29.41,5,2,5,0.04
2013-1-12,51.6,42.4,37.6,50.5,42.0,37.3,99,98,95,29.43,29.39,6,1,6,0.00
2013-1-13,74.1,58.5,49.8,64.4,56.2,49.2,99,93,72,29.43,29.30,8,2,8,0.01
2013-1-14,63.9,57.0,43.7,62.7,55.6,42.5,99,95,80,29.55,29.31,20,4,20,0.38
2013-1-15,43.5,39.7,37.0,42.5,39.2,36.8,99,98,96,29.60,29.40,19,4,19,1.17
2013-1-16,43.7,39.8,36.3,43.4,39.6,36.1,99,99,98,29.41,29.21,12,2,12,0.34
2013-1-17,45.0,40.3,32.7,44.7,39.9,32.5,99,99,96,29.42,29.26,14,2,14,0.77
2013-1-18,50.2,35.5,27.7,34.0,28.7,22.5,99,79,38,29.77,29.41,10,1,10,0.14
2013-1-19,56.5,39.2,26.1,37.4,30.5,24.2,94,73,45,29.73,29.33,14,3,14,0.00
2013-1-20,63.1,46.7,32.7,37.4,30.2,20.5,88,56,32,29.35,29.19,26,5,26,0.00
2013-1-21,57.6,41.5,30.4,30.2,21.9,10.2,75,48,28,29.37,29.09,25,5,25,0.00
2013-1-22,33.8,24.5,17.6,10.9,3.0,-2.6,55,39,25,29.55,29.24,21,6,21,0.00
2013-1-23,37.2,24.3,11.7,18.8,7.6,2.0,76,51,26,29.61,29.33,17,4,17,0.00
2013-1-24,32.2,24.2,14.7,20.4,11.0,2.7,87,60,32,29.81,29.29,36,6,36,0.00
2013-1-25,23.4,19.0,13.6,20.0,13.3,5.3,92,79,54,29.79,29.33,18,4,18,0.00
2013-1-26,46.4,29.4,16.9,30.3,23.4,16.2,98,80,51,29.71,29.33,11,2,11,0.01
2013-1-27,36.9,28.6,19.0,27.3,23.2,16.6,93,80,67,29.87,29.70,13,2,13,0.00
2013-1-28,53.1,39.5,31.6,45.4,36.4,26.2,99,89,74,29.74,29.42,14,3,14,0.01
2013-1-29,77.7,57.1,40.5,60.1,50.4,39.9,99,81,51,29.44,29.28,14,2,14,0.00
2013-1-30,68.4,62.3,56.8,65.3,60.2,54.0,99,93,83,29.29,28.55,27,7,27,1.90
2013-1-31,59.5,42.2,30.9,59.3,28.6,18.4,99,59,44,29.20,28.58,30,9,30,0.07
2013-2-1,35.1,27.4,16.5,28.4,12.2,3.4,91,54,34,29.64,29.06,27,6,27,0.00
2013-2-2,35.1,24.3,14.4,27.2,17.0,7.2,97,75,48,29.64,29.26,17,3,17,0.00
2013-2-3,41.7,33.1,24.3,32.9,25.2,16.9,98,75,53,29.26,29.10,19,4,19,0.02
2013-2-4,38.7,30.7,21.9,24.8,19.8,14.2,83,64,54,29.38,29.18,17,4,17,0.00
2013-2-5,58.3,42.2,30.0,40.2,32.3,23.7,85,69,50,29.21,29.12,21,4,21,0.00
2013-2-6,59.5,44.8,35.4,35.5,32.1,27.6,91,64,34,29.60,29.19,21,4,21,0.00
2013-2-7,41.5,37.5,34.5,30.5,28.4,26.8,84,70,63,29.67,29.39,17,3,17,0.00
2013-2-8,57.2,40.9,32.5,46.4,34.2,24.6,99,79,54,29.40,29.04,27,5,27,0.18
2013-2-9,59.2,40.6,28.9,24.8,19.9,15.4,71,45,22,29.63,29.22,26,5,26,0.00
2013-2-10,49.5,34.9,22.6,33.4,22.8,18.0,91,63,38,29.75,29.48,15,2,15,0.05
2013-2-11,58.6,46.7,35.6,53.2,42.6,27.3,99,89,32,29.49,29.07,17,4,17,0.08
2013-2-12,66.0,51.2,39.2,32.6,29.6,24.7,68,45,25,29.27,29.11,24,4,24,0.00
2013-2-13,45.7,40.7,32.0,38.6,33.6,27.8,99,78,51,29.19,28.90,17,3,17,0.11
2013-2-14,56.7,41.1,31.3,35.1,30.9,28.0,99,71,40,29.29,29.06,12,2,12,0.01
2013-2-15,63.1,44.8,27.7,41.0,34.5,25.8,96,70,40,29.32,29.14,20,4,20,0.01
2013-2-16,42.4,35.4,25.9,35.4,30.1,17.3,98,81,64,29.25,29.08,11,2,11,0.00
2013-2-17,33.3,26.0,21.2,18.8,9.6,5.0,87,51,35,29.48,29.13,22,6,22,0.01
2013-2-18,52.0,32.9,14.9,26.9,19.0,9.2,86,59,35,29.63,29.43,15,3,15,0.00
2013-2-19,51.8,39.4,32.5,46.8,30.5,18.6,98,73,39,29.42,29.01,28,4,28,0.09
2013-2-20,48.6,36.0,30.6,20.4,16.7,14.1,53,45,30,29.40,29.15,19,6,19,0.00
2013-2-21,53.8,38.3,25.9,25.3,19.4,14.4,67,47,32,29.55,29.36,16,4,16,0.00
2013-2-22,36.9,34.5,31.3,30.2,25.5,19.3,84,70,53,29.59,29.42,9,2,9,0.01
2013-2-23,57.7,41.4,32.9,46.4,37.7,30.0,97,88,65,29.42,29.06,8,2,8,0.00
2013-2-24,61.9,45.8,35.1,46.2,33.0,25.4,99,67,30,29.33,29.04,17,4,17,0.00
2013-2-25,46.4,36.5,29.3,26.1,23.1,19.6,79,59,43,29.47,29.33,22,4,22,0.00
2013-2-26,43.3,35.3,28.4,43.1,31.9,22.4,99,88,68,29.45,28.83,29,8,29,0.89
2013-2-27,58.1,47.0,38.7,47.8,39.1,34.7,99,77,51,28.96,28.81,23,5,23,0.00
2013-2-28,49.8,41.3,36.5,35.8,30.1,27.1,81,65,46,29.03,28.90,21,4,21,0.00
2013-3-1,43.2,38.5,34.0,33.5,29.0,25.2,87,69,58,29.15,29.01,10,2,10,0.00
2013-3-2,39.4,35.2,30.0,25.7,22.6,19.5,73,60,54,29.14,29.05,13,4,13,0.00
2013-3-3,48.6,34.0,23.9,25.5,20.2,15.0,81,58,39,29.18,29.04,19,4,19,0.00
2013-3-4,54.1,36.4,21.4,20.7,16.1,12.7,75,46,21,29.29,29.17,17,4,17,0.00
2013-3-5,54.0,39.6,32.9,38.0,30.6,18.2,99,71,48,29.30,28.93,11,3,11,0.28
2013-3-6,42.1,36.6,32.2,36.2,32.9,30.7,99,87,67,29.28,28.80,34,10,34,0.51
2013-3-7,52.0,42.5,35.8,33.3,29.9,26.2,85,61,46,29.44,29.25,21,6,21,0.00
2013-3-8,53.2,42.7,33.6,32.4,28.8,23.8,83,59,43,29.52,29.41,27,6,27,0.00
2013-3-9,67.5,47.2,31.6,34.5,28.2,20.8,82,52,20,29.57,29.49,14,4,14,0.00
2013-3-10,70.9,51.4,32.7,38.6,31.9,25.9,82,51,27,29.55,29.42,14,3,14,0.00
2013-3-11,61.2,52.4,41.7,54.4,40.7,29.1,88,65,50,29.45,29.12,15,3,15,0.02
2013-3-12,68.4,57.3,40.3,59.8,48.2,31.5,99,75,38,29.19,28.94,19,5,19,1.05
2013-3-13,52.0,41.4,32.0,35.1,27.7,18.0,89,60,43,29.34,29.17,24,6,24,0.00
2013-3-14,52.7,39.7,27.5,25.3,19.5,15.7,66,45,29,29.42,29.29,22,6,22,0.00
2013-3-15,62.1,46.1,29.8,41.1,29.5,19.0,73,53,41,29.36,29.04,19,5,19,0.00
2013-3-16,74.7,54.8,41.9,60.9,47.6,35.8,98,78,50,29.08,28.80,19,2,19,0.20
2013-3-17,53.2,39.7,32.9,51.6,38.2,32.7,99,94,89,29.47,29.07,12,4,12,0.27
2013-3-18,34.3,33.0,32.2,33.8,32.6,31.8,99,99,96,29.48,29.11,9,2,9,0.37
2013-3-19,63.9,46.7,32.0,48.6,27.8,5.3,99,59,17,29.22,28.97,54,5,54,0.45
2013-3-20,57.4,44.8,32.4,23.9,17.4,8.3,56,34,21,29.27,28.98,27,6,27,0.00
2013-3-21,43.2,35.1,26.2,29.5,18.0,11.0,78,51,34,29.16,28.97,21,6,21,0.00
2013-3-22,52.7,37.0,23.0,26.0,18.6,12.2,72,48,32,29.23,29.12,23,5,23,0.00
2013-3-23,62.4,44.4,30.0,32.4,25.1,18.8,75,49,29,29.27,29.09,13,3,13,0.00
2013-3-24,44.4,36.4,31.5,32.3,28.1,22.0,99,74,44,29.19,28.83,17,4,17,0.00
2013-3-25,50.2,36.7,29.8,38.3,31.7,26.5,99,84,57,28.95,28.75,14,1,14,0.06
2013-3-26,50.4,41.2,32.9,33.9,29.4,27.3,84,64,45,29.28,28.94,16,4,16,0.00
2013-3-27,52.3,42.0,34.3,31.1,27.6,25.1,75,58,38,29.40,29.27,24,6,24,0.00
2013-3-28,54.0,41.9,29.7,31.1,27.9,25.3,85,59,38,29.47,29.36,24,5,24,0.00
2013-3-29,64.8,47.7,34.2,37.0,31.3,27.7,85,56,31,29.50,29.34,16,3,16,0.00
2013-3-30,68.4,51.0,32.5,39.5,33.4,28.0,85,54,31,29.45,29.28,17,3,17,0.00
2013-3-31,57.9,48.2,41.5,54.2,43.3,33.5,99,84,54,29.30,28.97,8,2,8,0.15
2013-4-1,66.4,52.3,40.8,49.1,41.3,28.3,99,69,44,29.21,29.01,32,6,32,0.04
2013-4-2,59.7,43.9,29.5,28.7,21.7,13.1,82,45,21,29.37,29.21,17,4,17,0.00
2013-4-3,59.7,44.7,29.3,25.4,19.0,12.5,71,39,18,29.55,29.36,18,5,18,0.00
2013-4-4,50.4,38.1,29.7,35.5,24.3,15.9,99,61,32,29.62,29.21,14,3,14,0.44
2013-4-5,72.0,51.2,35.6,49.3,39.6,33.5,99,70,34,29.24,29.06,18,3,18,0.17
2013-4-6,66.0,53.2,39.6,35.1,27.2,15.5,63,39,21,29.50,29.24,14,5,14,0.00
2013-4-7,73.6,54.9,37.9,50.4,40.7,31.4,78,60,43,29.46,29.22,22,5,22,0.00
2013-4-8,84.2,67.5,50.0,56.0,50.9,44.3,82,58,33,29.32,29.16,21,4,21,0.00
2013-4-9,89.1,73.3,56.5,62.9,57.3,51.7,85,60,40,29.33,29.18,17,4,17,0.00
2013-4-10,93.6,77.6,61.5,66.2,60.1,55.6,83,57,37,29.24,29.06,21,4,21,0.00
2013-4-11,88.0,75.0,62.2,65.2,61.1,57.4,86,64,41,29.11,28.94,21,5,21,0.00
2013-4-12,84.6,70.7,61.2,69.4,59.3,42.7,99,71,29,28.95,28.77,26,6,26,0.74
2013-4-13,76.8,63.3,46.4,47.3,40.4,31.0,81,45,23,29.17,28.93,25,5,25,0.00
2013-4-14,82.0,65.6,48.4,49.8,43.3,35.1,70,46,29,29.29,29.17,16,3,16,0.00
2013-4-15,64.8,57.6,52.2,57.7,54.0,46.9,99,89,53,29.45,29.25,13,3,13,0.34
2013-4-16,76.5,63.4,55.6,64.9,59.6,55.3,99,89,66,29.50,29.35,13,3,13,0.00
2013-4-17,89.6,72.8,59.0,67.6,62.9,58.5,99,74,45,29.41,29.28,12,2,12,0.38
2013-4-18,81.5,68.3,61.7,69.3,63.0,58.8,99,85,55,29.38,29.18,21,4,21,0.13
2013-4-19,74.5,67.1,55.6,68.5,63.9,47.2,99,90,73,29.18,28.81,14,3,30,0.44
2013-4-20,68.0,54.5,42.6,47.8,35.1,29.8,74,50,27,29.48,28.96,11,2,20,0.00
2013-4-21,63.9,49.5,37.0,40.0,34.4,30.3,81,57,39,29.72,29.48,8,2,13,0.00
2013-4-22,65.8,47.3,32.9,43.7,35.0,28.9,93,66,35,29.71,29.50,11,2,20,0.00
2013-4-23,73.8,57.3,45.5,52.9,46.0,40.3,90,67,46,29.52,28.90,7,2,14,0.00
2013-4-24,80.8,61.8,45.0,61.2,54.3,44.7,99,79,47,29.31,29.03,12,2,24,0.04
2013-4-25,74.3,58.9,40.8,52.9,40.3,29.3,87,53,28,29.47,29.17,9,1,14,0.00
2013-4-26,74.1,58.1,42.4,46.1,39.9,30.4,78,53,33,29.63,29.47,8,1,12,0.00
2013-4-27,79.7,61.8,46.9,52.5,47.7,42.2,85,62,37,29.56,29.42,8,1,13,0.00
2013-4-28,58.6,55.1,52.0,54.7,51.9,48.5,99,89,75,29.44,29.27,4,0,8,0.13
2013-4-29,71.1,58.9,51.1,62.6,55.9,50.8,99,90,69,29.31,29.15,5,1,9,0.17
2013-4-30,68.4,60.2,55.6,59.7,57.0,54.7,99,90,72,29.43,29.21,9,1,13,0.05
2013-5-1,79.2,61.9,52.9,56.0,51.0,41.8,99,72,32,29.55,29.40,11,3,17,0.06
2013-5-2,77.4,61.7,50.9,56.3,48.7,42.9,88,64,42,29.56,29.45,9,2,14,0.00
2013-5-3,72.9,57.0,45.1,56.5,49.3,43.3,99,78,51,29.52,29.38,10,2,18,0.00
2013-5-4,66.4,54.6,44.4,53.8,47.1,41.4,90,76,59,29.45,29.30,8,2,17,0.00
2013-5-5,70.2,54.1,41.2,52.3,45.2,38.1,90,73,53,29.36,29.24,11,2,20,0.00
2013-5-6,59.7,54.5,50.5,59.5,53.5,49.3,99,97,80,29.27,29.07,14,3,23,1.44
2013-5-7,69.3,57.5,50.5,63.8,56.8,50.1,99,98,81,29.12,29.03,12,2,19,1.75
2013-5-8,72.1,56.9,49.6,61.3,54.9,49.4,99,93,66,29.16,29.08,4,0,8,0.09
2013-5-9,86.9,62.4,44.2,66.3,56.2,43.8,99,83,46,29.19,29.10,5,0,10,0.00
2013-5-10,89.2,70.6,52.5,69.8,61.0,52.3,99,76,43,29.20,29.03,13,1,23,0.05
2013-5-11,82.2,68.2,60.1,69.1,63.2,59.8,99,86,56,29.06,28.89,11,1,20,0.15
2013-5-12,72.3,60.8,46.6,59.8,45.3,34.1,99,62,29,29.20,28.93,11,2,19,0.01
2013-5-13,66.0,50.8,36.9,45.3,37.7,33.4,94,64,34,29.33,27.83,9,1,15,0.00
2013-5-14,75.4,54.7,34.2,49.2,41.9,33.1,99,67,31,29.39,29.16,7,1,14,0.00
2013-5-15,95.5,71.4,48.9,72.3,57.7,45.6,90,65,38,29.17,28.93,8,1,14,0.00
2013-5-16,92.5,73.8,61.0,69.9,62.4,55.6,96,70,42,29.12,28.99,9,1,15,0.05
2013-5-17,91.2,73.7,61.5,68.4,64.2,59.1,99,75,46,29.28,29.10,8,1,13,0.13
2013-5-18,70.9,64.2,59.5,66.9,63.2,59.3,99,97,85,29.35,29.25,6,1,11,0.46
2013-5-19,69.4,64.9,61.3,68.0,64.3,61.1,99,98,92,29.32,29.21,6,1,11,0.30
2013-5-20,92.3,72.7,64.4,75.0,69.2,64.1,99,90,56,29.25,29.13,5,0,10,0.05
2013-5-21,96.1,76.6,65.8,77.6,71.0,65.6,99,85,51,29.16,29.04,4,1,9,0.00
2013-5-22,91.2,76.1,65.3,76.8,70.9,65.0,99,86,61,29.12,28.98,9,1,17,0.12
2013-5-23,86.7,70.6,61.0,73.9,67.2,60.7,99,90,64,29.08,28.91,13,1,24,0.43
2013-5-24,68.9,60.8,45.9,60.7,50.3,37.3,99,71,41,29.30,28.92,11,2,20,0.00
2013-5-25,77.5,57.2,39.0,48.9,39.0,30.4,93,56,20,29.38,29.25,11,2,23,0.00
2013-5-26,85.6,62.0,42.1,57.9,46.1,39.4,94,61,26,29.39,29.26,7,1,13,0.00
2013-5-27,81.1,63.6,46.6,61.9,50.9,39.5,88,65,41,29.42,29.29,5,1,8,0.00
2013-5-28,92.1,71.6,53.1,74.7,63.5,52.8,99,78,50,29.33,29.19,8,1,15,0.00
2013-5-29,95.4,78.6,63.9,74.9,68.6,63.5,99,74,44,29.31,29.23,8,1,13,0.00
2013-5-30,96.3,78.3,62.4,73.8,68.3,62.2,99,75,39,29.35,29.26,7,1,14,0.00
2013-5-31,94.3,78.4,62.4,73.5,68.3,61.6,99,73,47,29.32,29.19,8,1,16,0.00
2013-6-1,92.8,78.8,65.8,75.3,69.9,64.7,98,76,52,29.21,29.08,8,1,15,0.00
2013-6-2,83.1,73.4,68.4,74.3,69.6,65.1,99,88,73,29.10,29.01,9,1,16,0.17
2013-6-3,90.9,74.2,64.6,76.4,69.9,63.8,99,88,53,29.10,28.95,4,0,8,0.73
2013-6-4,86.4,71.3,59.4,66.3,60.8,51.3,98,71,49,29.25,29.08,10,1,17,0.01
2013-6-5,84.6,71.1,59.4,69.1,61.6,51.8,85,73,56,29.28,29.15,5,0,8,0.00
2013-6-6,70.0,63.8,60.1,65.6,62.5,59.5,99,96,76,29.18,28.94,6,1,12,2.95
2013-6-7,73.4,67.9,64.6,70.2,66.8,64.3,99,96,88,28.94,28.72,9,1,15,0.20
2013-6-8,91.6,73.4,62.2,71.7,66.2,61.1,99,81,50,29.21,28.90,5,0,9,0.06
2013-6-9,88.2,74.1,62.6,78.3,70.0,62.3,99,88,65,29.28,29.16,7,1,11,0.79
2013-6-10,84.9,72.8,68.5,79.0,71.4,68.3,99,96,73,29.20,28.93,9,1,21,0.59
2013-6-11,90.5,75.5,65.5,73.0,68.2,65.2,99,81,50,29.03,28.94,8,1,16,0.05
2013-6-12,98.6,79.4,63.9,81.8,72.1,63.4,99,81,49,29.04,28.92,8,1,14,0.00
2013-6-13,91.4,75.0,67.8,79.4,70.7,58.5,99,88,54,28.95,28.67,11,1,27,0.37
2013-6-14,84.7,71.4,61.3,66.9,59.6,55.1,89,68,49,29.11,28.79,10,2,19,0.00
2013-6-15,91.2,72.4,54.1,69.6,61.7,53.6,99,73,42,29.20,29.10,8,1,12,0.00
2013-6-16,92.8,74.8,59.4,76.6,67.4,59.1,99,80,51,29.15,29.03,8,1,14,0.00
2013-6-17,94.6,76.0,67.3,76.8,70.7,65.5,99,86,53,29.10,28.98,5,1,14,0.28
2013-6-18,80.8,69.9,62.8,72.8,67.8,62.3,99,94,71,29.05,28.90,11,1,18,1.06
2013-6-19,81.9,70.3,59.5,71.5,66.2,59.3,99,87,68,29.24,28.99,5,1,9,0.00
2013-6-20,88.5,73.3,65.5,71.2,67.0,61.3,99,82,56,29.36,29.23,5,0,8,0.00
2013-6-21,91.2,73.9,57.4,71.3,62.5,55.1,94,70,48,29.39,29.30,4,0,8,0.00
2013-6-22,95.7,75.8,61.3,75.8,68.6,58.6,99,80,51,29.35,29.22,5,1,10,0.00
2013-6-23,95.0,78.4,69.4,80.7,73.5,69.2,99,86,59,29.29,29.18,6,0,11,0.22
2013-6-24,98.1,79.5,67.6,80.0,74.0,67.4,99,85,49,29.26,29.12,4,0,10,0.04
2013-6-25,98.6,81.1,68.0,80.2,74.1,67.7,99,82,51,29.17,29.03,5,1,9,0.01
2013-6-26,97.2,77.6,68.5,80.4,73.0,68.3,99,88,53,29.05,28.91,5,0,12,0.21
2013-6-27,87.4,74.6,68.4,76.3,71.7,68.1,99,91,67,28.98,28.76,9,1,14,0.01
2013-6-28,95.9,81.2,68.9,77.5,71.7,65.3,99,76,48,28.79,28.57,10,2,26,0.00
2013-6-29,93.0,77.4,61.3,75.1,68.4,60.5,99,76,49,28.81,28.64,8,1,13,0.01
2013-6-30,89.8,75.2,65.5,77.8,71.2,65.2,99,88,64,28.95,28.78,7,0,11,0.00
2013-7-1,89.6,76.2,68.9,76.8,72.4,68.6,99,89,64,29.06,28.92,6,1,11,0.04
2013-7-2,79.7,73.8,70.5,76.0,72.8,70.3,99,96,86,29.25,29.05,6,1,11,0.45
2013-7-3,88.0,75.3,71.2,80.0,73.9,71.0,99,96,72,29.31,29.21,6,0,11,0.67
2013-7-4,93.7,78.8,72.1,80.6,75.3,71.9,99,90,59,29.34,29.25,7,1,12,0.43
2013-7-5,93.2,78.7,72.1,81.9,75.0,71.9,99,89,63,29.33,29.23,8,1,13,0.01
2013-7-6,93.6,80.2,71.6,78.8,74.7,71.3,99,85,55,29.30,29.17,7,1,14,0.00
2013-7-7,94.3,77.3,70.0,79.2,73.8,69.7,99,90,60,29.23,29.10,9,1,18,0.00
2013-7-8,91.8,77.1,66.2,78.1,71.7,65.9,99,85,58,29.21,29.14,5,1,14,0.00
2013-7-9,92.8,78.9,68.5,80.6,74.8,68.1,99,88,62,29.19,29.10,5,0,9,0.00
2013-7-10,91.0,76.7,71.1,81.3,75.0,70.8,99,95,72,29.12,28.97,13,0,24,0.00
2013-7-11,92.1,75.9,69.3,80.1,73.2,69.0,99,92,59,29.00,28.93,4,0,8,3.07
2013-7-12,74.1,69.8,67.5,69.8,67.8,65.8,99,93,80,29.12,28.94,10,2,15,0.31
2013-7-13,88.3,75.2,66.9,77.4,71.7,66.5,99,90,65,29.31,29.10,8,1,12,0.78
2013-7-14,93.6,79.2,69.8,80.8,74.1,69.5,99,86,58,29.40,29.30,4,0,8,0.00
2013-7-15,100.6,83.3,71.2,83.3,76.0,71.0,99,82,50,29.39,29.28,5,0,8,0.00
2013-7-16,99.9,83.0,70.3,83.1,76.8,70.1,99,84,57,29.32,29.23,8,1,13,0.00
2013-7-17,98.8,81.6,73.4,83.4,77.6,73.2,99,89,57,29.29,29.18,6,0,11,0.08
2013-7-18,100.8,83.2,72.0,84.8,77.9,71.7,99,86,54,29.21,29.08,4,0,8,0.00
2013-7-19,101.1,83.0,72.5,84.3,77.7,72.2,99,86,54,29.12,28.97,6,1,12,0.00
2013-7-20,97.5,82.1,73.0,81.7,76.1,71.3,99,84,55,29.01,28.90,6,1,11,0.00
2013-7-21,97.7,77.4,69.3,81.5,73.9,69.0,99,90,55,29.03,28.94,7,0,20,0.90
2013-7-22,93.0,78.8,70.9,80.7,75.1,70.6,99,89,65,29.00,28.82,8,1,12,0.01
2013-7-23,97.3,80.7,70.3,79.4,73.8,69.0,99,82,49,28.84,28.72,5,1,10,0.01
2013-7-24,93.6,75.9,67.8,79.7,72.2,67.6,99,89,58,28.95,28.74,8,1,17,0.93
2013-7-25,89.6,73.2,65.3,72.9,66.3,60.4,99,81,57,29.09,28.92,8,1,14,0.00
2013-7-26,90.0,73.8,59.5,74.3,66.5,59.3,99,81,53,29.14,29.05,6,1,10,0.00
2013-7-27,78.3,71.3,66.2,75.5,70.1,65.9,99,96,87,29.09,28.96,4,0,8,0.17
2013-7-28,93.4,76.2,66.4,77.8,71.8,65.6,99,88,58,29.03,28.92,4,0,10,0.15
2013-7-29,91.4,73.0,60.1,70.1,63.8,59.8,99,77,41,29.21,29.02,5,0,8,0.01
2013-7-30,90.1,72.8,57.4,73.5,64.7,57.1,99,79,49,29.27,29.15,6,0,9,0.00
2013-7-31,87.4,70.2,62.6,74.3,67.8,62.3,99,93,65,29.18,29.03,4,0,9,0.14
2013-8-1,93.2,75.3,68.2,79.7,71.8,67.9,99,90,58,29.04,28.83,5,0,11,0.22
2013-8-2,88.5,68.8,62.6,72.5,66.0,62.3,99,92,54,29.01,28.91,4,0,9,0.01
2013-8-3,88.5,72.2,63.1,76.9,68.5,62.9,99,89,62,29.01,28.94,5,0,16,0.05
2013-8-4,90.5,74.0,62.4,69.8,64.3,57.5,99,76,41,29.07,28.94,8,1,13,0.01
2013-8-5,87.8,70.3,57.2,69.0,62.7,56.4,99,79,52,29.13,29.02,5,1,10,0.00
2013-8-6,88.5,73.1,65.7,75.6,69.6,65.4,99,90,62,29.06,28.99,4,0,9,0.09
2013-8-7,86.4,74.6,69.3,77.0,72.3,69.0,99,93,71,29.09,29.02,5,1,16,0.01
2013-8-8,85.5,75.5,70.9,79.1,74.0,70.6,99,95,77,29.06,28.99,5,0,12,0.20
2013-8-9,95.9,81.4,72.1,81.2,76.4,71.9,99,87,59,29.01,28.91,9,1,16,0.00
2013-8-10,91.2,78.2,70.7,81.5,75.0,70.4,99,90,69,29.12,28.99,6,1,12,0.11
2013-8-11,89.8,74.0,68.0,79.8,72.2,67.7,99,94,69,29.13,29.02,4,0,8,0.58
2013-8-12,96.3,78.8,68.2,81.2,73.9,67.9,99,87,55,29.05,28.93,5,0,9,0.01
2013-8-13,92.7,78.2,71.2,79.3,74.6,70.4,99,90,62,28.94,27.38,4,0,7,0.00
2013-8-14,86.0,70.7,57.7,70.4,60.0,52.7,97,71,44,29.12,28.83,8,1,14,0.00
2013-8-15,84.6,64.9,52.2,64.9,57.4,51.9,99,80,48,29.19,29.08,8,1,12,0.00
2013-8-16,81.3,65.7,52.3,70.3,59.9,52.1,99,84,56,29.20,29.12,4,0,8,0.00
2013-8-17,78.6,66.5,56.5,65.0,61.3,56.2,99,85,59,29.24,29.16,10,1,14,0.02
2013-8-18,72.1,65.0,61.9,67.7,64.2,61.6,99,97,86,29.23,29.13,9,2,17,1.55
2013-8-19,77.4,68.4,63.3,72.9,67.3,63.1,99,96,84,29.19,29.06,4,0,7,0.05
2013-8-20,89.6,75.4,64.8,78.0,71.5,64.5,99,89,66,29.17,29.08,6,0,8,0.01
2013-8-21,90.9,76.7,67.8,79.4,73.0,67.6,99,89,64,29.20,29.08,5,0,9,0.00
2013-8-22,94.6,76.5,66.0,78.0,71.8,65.8,99,87,55,29.10,28.96,5,0,9,0.17
2013-8-23,79.3,68.3,60.3,76.4,67.6,59.8,99,98,86,29.11,28.93,10,1,20,0.50
2013-8-24,89.4,68.8,55.9,68.6,61.9,55.7,99,82,47,29.30,29.11,9,1,14,0.01
2013-8-25,88.7,68.7,58.5,73.7,64.2,58.2,99,87,50,29.38,29.25,4,0,8,0.00
2013-8-26,91.8,71.7,56.7,74.4,65.3,56.4,99,83,50,29.29,29.04,5,0,11,0.00
2013-8-27,94.8,75.5,63.0,80.1,71.1,62.7,99,88,56,29.04,28.90,5,0,9,0.00
2013-8-28,76.1,73.2,70.7,75.9,72.8,70.3,99,99,95,28.96,28.80,3,0,5,0.25
2013-8-29,90.9,77.1,65.1,77.2,73.1,64.9,99,89,63,29.01,28.80,10,1,14,0.01
2013-8-30,92.1,76.0,67.3,76.6,71.6,67.0,99,88,58,29.03,28.88,6,1,11,0.00
2013-8-31,95.2,77.0,68.0,80.6,73.3,67.7,99,89,60,28.92,28.80,5,0,9,0.04
2013-9-1,97.2,75.2,65.5,80.1,72.0,65.2,99,91,57,28.85,28.76,8,0,14,0.09
2013-9-2,95.0,79.0,68.7,79.1,73.6,68.5,99,86,52,28.82,28.73,7,1,11,0.01
2013-9-3,93.9,77.0,67.8,77.6,70.9,64.1,99,84,50,28.93,28.73,5,1,9,0.00
2013-9-4,88.0,70.9,58.6,72.4,64.4,58.4,99,82,51,29.07,28.92,7,0,10,0.00
2013-9-5,93.4,71.4,53.8,73.3,63.6,53.5,99,80,44,29.09,28.97,5,0,8,0.00
2013-9-6,86.7,67.4,57.9,64.8,59.7,54.6,99,79,46,29.20,29.06,8,1,12,0.00
2013-9-7,87.8,67.3,53.1,70.0,62.0,52.8,99,85,53,29.10,28.90,7,1,12,0.00
2013-9-8,96.8,75.0,60.4,75.4,68.3,60.2,99,82,49,28.97,28.84,6,1,10,0.00
2013-9-9,85.1,72.4,66.6,71.2,66.5,59.8,99,83,61,29.15,28.96,8,1,12,0.00
2013-9-10,98.2,78.4,66.6,80.4,73.3,66.3,99,86,55,29.16,29.06,4,0,10,0.00
2013-9-11,99.0,80.2,68.5,83.1,74.5,68.3,99,85,52,29.12,28.98,6,1,11,0.00
2013-9-12,98.1,78.5,67.6,83.5,73.0,67.4,99,85,49,29.00,28.73,5,0,10,0.01
2013-9-13,83.8,71.5,61.5,68.3,61.5,53.8,99,73,41,28.88,28.69,9,1,17,0.00
2013-9-14,76.8,61.0,49.6,57.4,51.4,46.4,98,73,47,29.10,28.89,10,1,15,0.00
2013-9-15,82.6,62.1,45.3,64.7,56.2,45.1,99,84,52,29.18,29.03,8,1,14,0.00
2013-9-16,75.4,63.1,55.2,70.3,60.8,54.8,99,93,74,29.17,29.01,12,1,18,0.04
2013-9-17,77.4,60.5,50.2,61.0,55.2,49.1,99,84,57,29.33,29.16,8,1,15,0.00
2013-9-18,76.5,57.7,44.2,62.2,52.3,44.0,99,84,52,29.27,29.11,6,0,11,0.00
2013-9-19,82.8,64.6,54.5,67.3,59.0,52.0,99,83,58,29.14,29.01,5,0,8,0.00
2013-9-20,81.5,67.2,60.3,70.4,64.8,60.0,99,92,69,29.02,28.89,4,0,7,0.00
2013-9-21,68.5,65.7,60.4,68.3,65.4,60.0,99,99,99,28.90,28.63,7,1,17,0.52
2013-9-22,80.1,64.0,54.1,64.0,58.6,53.7,99,85,51,28.87,28.67,8,1,14,0.01
2013-9-23,75.7,60.1,48.4,58.8,53.4,47.8,99,80,53,29.02,28.86,6,1,11,0.00
2013-9-24,83.1,61.7,48.9,64.3,56.3,48.7,99,85,52,29.04,28.86,5,0,8,0.00
2013-9-25,75.7,63.2,53.6,71.1,59.5,53.3,99,89,66,28.90,28.80,4,0,9,0.00
2013-9-26,83.1,64.4,55.2,62.3,58.0,54.6,99,82,49,29.00,28.82,7,1,13,0.00
2013-9-27,78.3,62.2,50.5,70.4,57.6,50.1,99,87,57,29.14,28.99,5,0,8,0.00
2013-9-28,69.8,60.8,52.7,59.6,57.3,52.4,99,89,69,29.21,29.12,6,1,11,0.00
2013-9-29,81.9,62.6,52.7,66.3,56.4,52.3,99,83,46,29.12,28.96,5,0,9,0.00
2013-9-30,86.5,62.9,48.2,68.0,57.1,47.9,99,84,49,29.01,28.89,4,0,7,0.00
2013-10-1,89.8,67.7,55.2,71.0,61.8,55.0,99,84,47,29.01,28.90,5,0,9,0.00
2013-10-2,93.0,69.5,55.6,75.4,62.7,55.1,99,83,46,29.03,28.93,4,0,8,0.00
2013-10-3,90.9,70.0,58.6,72.7,65.2,58.4,99,87,50,29.05,28.96,5,0,7,0.00
2013-10-4,95.2,71.4,57.7,76.8,65.3,57.3,99,84,45,29.03,28.94,6,0,9,0.00
2013-10-5,95.0,74.2,61.0,80.2,67.4,60.7,99,83,45,29.02,28.93,5,0,9,0.00
2013-10-6,90.3,72.8,61.3,74.2,66.9,61.1,99,84,51,28.96,28.82,6,1,14,0.00
2013-10-7,77.4,68.3,53.8,71.5,64.8,49.7,99,89,61,28.96,28.69,6,1,18,1.29
2013-10-8,71.2,57.7,49.1,52.5,49.6,46.6,98,76,48,29.17,28.95,11,1,19,0.00
2013-10-9,61.3,56.4,50.4,54.4,51.0,47.8,99,83,72,29.19,29.07,9,2,17,0.02
2013-10-10,61.7,57.8,52.3,59.2,56.1,50.6,99,94,87,29.07,28.86,14,4,25,0.20
2013-10-11,68.0,62.2,57.7,60.7,58.3,56.5,96,87,76,28.89,28.82,8,2,16,0.00
2013-10-12,66.9,62.7,60.8,65.8,62.1,59.4,99,98,91,29.03,28.86,8,2,13,0.53
2013-10-13,68.2,61.2,59.2,63.2,60.6,58.9,99,98,84,29.17,29.02,10,2,17,0.54
2013-10-14,76.1,60.9,54.1,64.3,58.7,53.9,99,93,65,29.20,29.09,8,2,14,0.05
2013-10-15,76.3,59.5,49.1,61.4,55.4,48.8,99,88,55,29.12,28.98,6,1,14,0.01
2013-10-16,74.7,63.2,57.7,64.5,60.2,57.2,99,91,70,28.98,28.82,5,0,10,0.00
2013-10-17,72.0,63.4,58.1,66.6,62.1,56.9,99,96,81,28.82,28.66,6,0,10,0.11
2013-10-18,74.1,58.2,45.7,57.4,48.9,44.0,97,73,45,28.93,28.74,10,1,17,0.00
2013-10-19,62.4,53.9,45.5,56.7,51.6,45.0,99,92,76,28.88,28.68,4,0,6,0.00
2013-10-20,70.5,52.7,39.9,50.5,42.5,38.4,99,71,39,28.99,28.77,7,1,11,0.00
2013-10-21,73.0,51.6,35.6,52.6,45.1,35.4,99,81,45,29.04,28.84,8,1,15,0.00
2013-10-22,76.8,57.6,46.0,56.5,50.0,45.8,99,79,46,28.84,28.68,8,1,16,0.00
2013-10-23,62.8,50.6,43.5,53.2,44.7,34.9,99,81,58,28.83,28.55,6,1,15,0.28
2013-10-24,59.4,43.7,33.1,41.0,34.3,29.3,99,72,44,29.04,28.82,8,1,18,0.00
2013-10-25,62.8,41.8,30.0,34.4,30.4,28.1,98,68,30,29.20,29.02,7,1,12,0.00
2013-10-26,60.6,42.4,25.9,39.4,32.1,24.9,98,71,38,29.20,28.85,8,1,17,0.00
2013-10-27,70.3,49.8,36.7,46.3,41.2,35.1,96,75,41,28.99,28.86,7,0,13,0.00
2013-10-28,75.6,53.8,37.6,52.5,46.1,37.3,99,78,43,29.12,28.98,6,0,10,0.00
2013-10-29,76.5,59.3,49.3,54.8,49.3,45.6,88,71,46,29.23,29.10,6,1,11,0.00
2013-10-30,75.2,59.1,52.0,64.0,55.8,49.8,99,89,66,29.18,28.99,5,0,10,0.01
2013-10-31,71.4,62.2,53.2,63.1,58.7,53.0,99,89,71,29.04,28.67,9,1,21,0.01
2013-11-1,81.7,68.6,57.2,65.6,62.3,56.9,99,82,45,28.67,28.46,11,2,22,0.05
2013-11-2,75.6,59.4,48.9,57.7,46.2,37.9,99,65,32,28.79,28.50,8,1,17,0.00
2013-11-3,66.6,50.2,40.8,42.1,36.4,30.4,87,61,34,29.25,28.78,10,1,24,0.00
2013-11-4,55.4,41.1,32.9,34.3,29.7,26.6,78,64,44,29.45,29.24,8,1,11,0.00
2013-11-5,55.4,45.4,33.3,45.6,36.9,28.7,92,73,56,29.46,29.31,4,0,7,0.00
2013-11-6,75.6,56.2,47.7,57.3,50.8,45.6,97,84,52,29.31,28.95,8,1,14,0.00
2013-11-7,69.6,56.1,43.2,59.0,47.3,29.7,99,75,39,28.96,28.75,13,2,23,0.00
2013-11-8,59.2,43.3,31.6,33.7,29.4,26.9,88,61,32,29.17,28.95,9,2,14,0.00
2013-11-9,60.8,42.0,27.0,36.4,31.1,26.0,98,69,38,29.20,28.94,11,2,19,0.00
2013-11-10,73.6,51.1,36.7,41.9,33.1,27.0,85,55,20,29.11,28.83,11,2,18,0.00
2013-11-11,65.5,46.6,31.6,35.8,31.6,27.7,89,59,28,29.17,28.90,11,1,20,0.00
2013-11-12,53.4,40.4,28.6,39.4,27.1,16.1,75,59,46,29.25,28.81,14,2,28,0.00
2013-11-13,54.5,35.0,26.2,24.0,19.5,16.0,74,55,28,29.35,29.23,9,1,15,0.00
2013-11-14,68.4,42.8,23.9,26.6,21.6,16.9,80,48,17,29.24,29.09,8,1,12,0.00
2013-11-15,70.7,46.8,31.5,49.4,32.6,24.0,99,61,21,29.13,29.02,5,0,10,0.27
2013-11-16,56.3,51.5,47.8,55.8,51.1,47.6,99,98,93,29.12,29.04,4,0,8,0.15
2013-11-17,59.4,55.9,52.3,59.1,55.6,52.1,99,99,99,29.06,28.63,5,1,9,0.15
2013-11-18,72.3,60.4,46.4,61.6,42.4,29.6,99,56,26,28.81,28.58,8,3,25,0.12
2013-11-19,54.9,44.6,36.1,33.5,30.0,27.5,78,57,42,29.19,28.80,11,2,24,0.00
2013-11-20,53.2,40.2,32.4,34.2,28.7,25.6,83,65,41,29.34,29.18,9,2,12,0.00
2013-11-21,52.0,44.6,35.4,43.2,38.3,30.1,85,79,70,29.37,29.20,5,1,11,0.00
2013-11-22,69.3,57.7,47.5,59.1,52.0,43.1,98,81,66,29.22,28.85,7,1,13,0.00
2013-11-23,61.3,50.5,36.0,54.8,34.1,16.0,97,57,24,29.02,28.85,11,3,20,0.00
2013-11-24,38.5,28.1,19.4,21.2,8.1,2.9,69,44,26,29.35,29.01,11,3,21,0.00
2013-11-25,42.1,28.2,16.5,17.8,14.1,10.4,81,57,34,29.37,29.16,8,1,15,0.00
2013-11-26,41.5,35.4,31.3,41.3,31.9,16.5,99,89,48,29.16,28.41,10,2,18,1.45
2013-11-27,44.2,38.8,27.7,43.8,32.3,13.8,99,78,55,28.92,28.30,11,3,21,0.20
2013-11-28,47.5,32.3,21.2,24.2,20.1,13.9,84,62,39,29.26,28.92,11,2,17,0.00
2013-11-29,52.5,34.9,22.3,31.7,25.1,19.9,94,69,41,29.49,29.24,9,1,11,0.00
2013-11-30,45.0,32.1,24.6,27.2,23.5,20.2,90,71,49,29.49,29.16,6,1,10,0.00
2013-12-1,60.8,39.9,21.4,36.2,29.8,19.5,97,71,38,29.16,28.82,4,0,8,0.00
2013-12-2,53.1,45.0,37.6,44.6,37.7,32.0,87,76,64,28.82,28.65,2,0,4,0.00
2013-12-3,64.4,47.3,37.2,46.7,40.5,35.5,94,79,52,28.80,28.67,5,0,8,0.00
2013-12-4,64.8,52.7,43.2,54.8,49.3,42.5,99,89,69,28.88,28.77,6,1,10,0.00
2013-12-5,63.5,59.2,55.6,63.2,58.9,55.0,99,99,96,28.89,28.76,4,1,8,0.04
2013-12-6,66.6,57.3,42.6,66.3,57.0,42.4,99,99,96,28.90,28.70,11,3,22,1.04
2013-12-7,46.6,40.6,30.7,42.8,36.1,27.6,99,84,72,29.29,28.87,9,2,18,0.22
2013-12-8,33.8,30.6,27.7,32.5,28.3,24.7,99,91,78,29.31,29.07,8,1,13,0.00
2013-12-9,40.1,34.0,30.6,39.8,33.8,30.1,99,99,99,29.08,28.82,3,0,4,0.12
2013-12-10,49.5,34.4,26.2,47.4,31.0,21.7,99,88,53,29.03,28.76,12,1,21,0.11
2013-12-11,51.1,34.2,21.9,29.9,24.4,18.5,93,70,41,29.20,29.02,7,1,11,0.00
2013-12-12,44.2,32.9,24.6,25.4,16.9,8.2,82,54,27,29.19,29.03,8,1,16,0.00
2013-12-13,51.8,36.5,24.3,28.5,20.0,14.9,75,53,30,29.10,29.00,10,2,15,0.00
2013-12-14,37.4,35.3,34.2,36.1,33.5,25.6,99,93,69,29.07,28.53,8,1,16,0.48
2013-12-15,54.0,39.7,29.1,40.9,32.6,26.6,99,78,47,28.78,28.44,12,2,21,0.01
2013-12-16,51.3,37.2,29.5,34.9,31.4,27.3,94,80,54,28.92,28.75,5,1,10,0.00
2013-12-17,60.8,39.5,26.8,43.4,34.7,26.6,99,85,50,28.88,28.68,14,1,18,0.04
2013-12-18,50.4,37.7,29.7,30.2,24.7,21.3,78,60,38,29.00,28.76,10,2,21,0.00
2013-12-19,69.3,46.6,30.9,37.1,30.0,22.5,79,55,29,29.00,28.90,9,1,17,0.00
2013-12-20,66.0,50.8,39.2,44.2,37.1,30.5,73,60,44,28.95,28.83,7,1,12,0.00
2013-12-21,68.5,58.5,47.5,61.6,52.9,41.5,93,82,67,28.85,28.72,11,2,24,0.00
2013-12-22,69.1,64.1,59.7,67.4,62.1,58.3,99,93,70,28.83,28.67,11,2,20,0.31
2013-12-23,62.6,56.5,38.8,62.3,52.2,30.6,99,86,64,28.97,28.71,9,2,14,0.86
2013-12-24,44.1,33.8,23.0,30.8,22.4,7.8,95,64,42,29.22,28.95,14,2,19,0.00
2013-12-25,39.6,25.4,15.3,20.2,14.9,10.1,88,66,40,29.31,29.11,6,1,10,0.00
2013-12-26,56.3,34.8,21.6,31.1,22.3,15.5,80,62,34,29.13,28.96,8,1,14,0.00
2013-12-27,59.0,37.8,24.4,29.3,24.6,20.3,88,63,29,29.20,29.08,8,1,13,0.00
2013-12-28,64.2,42.9,24.8,37.6,28.6,21.3,90,61,28,29.13,28.91,8,1,13,0.00
2013-12-29,59.2,46.3,39.7,52.5,43.2,34.8,99,90,65,28.92,28.23,11,2,17,1.37
2013-12-30,50.7,41.3,34.9,43.0,35.9,29.7,99,83,55,28.91,28.61,8,1,12,0.00
2013-12-31,55.0,37.4,27.3,36.9,26.6,19.7,99,68,32,29.09,28.87,14,2,25,0.00
2014-1-1,57.4,37.6,25.3,32.5,26.3,20.7,90,66,38,29.12,28.85,10,1,17,0.00
2014-1-2,43.0,33.5,27.5,34.8,30.2,24.6,99,88,63,28.86,28.35,6,0,10,0.17